Weather History for Beaufort, NC

Change the Weather History Date:

Monday, October 8, 2012

  Actual Average Record
Temperature  
Mean Temperature 64 °F -  
Max Temperature 71 °F 77 °F 89 °F (2007)
Min Temperature 57 °F 55 °F 41 °F (1988)
Degree Days  
Heating Degree Days 1    
Growing Degree Days 14 (Base 50)    
Moisture  
Dew Point 61 °F    
Average Humidity 90    
Maximum Humidity 100    
Minimum Humidity 78    
Precipitation  
Precipitation 0.01 in - - ()
Sea Level Pressure  
Sea Level Pressure 30.08 in    
Wind  
Wind Speed 10 mph (NNE)    
Max Wind Speed 15 mph    
Max Gust Speed 21 mph    
Visibility 10 miles    
Events Rain    
Averages and records for this station are not official NWS values.
T = Trace of Precipitation, MM = Missing Value Source: NWS Daily Summary

Daily Weather History Graph

Daily Weather History Graph

Search for Another Location

Airport:

Trip Planner

Search our weather history database for the weather conditions in past years. The results will help you decide how hot, cold, wet, or windy it might be!

Date:

Astronomy

Oct. 08, 2012 Rise Set
Actual Time 7:07 AM EDT 6:40 PM EDT
Civil Twilight 6:41 AM EDT 7:05 PM EDT
Nautical Twilight 6:12 AM EDT 7:34 PM EDT
Astronomical Twilight 5:43 AM EDT 8:04 PM EDT
Moon 12:00 AM EDT (10/8) 2:13 PM EDT (10/8)
Length of Visible Light 12h 23m
Length of Day
11h 33m
Waning Gibbous, 46% of the Moon is Illuminated
Oct 8
Waning Gibbous
Oct 15
New
Oct 21
First Quarter
Oct 29
Full
Nov 6
Last Quarter

Hourly Weather History & Observations

Time (EDT) Temp. Dew Point Humidity Pressure Visibility Wind Dir Wind Speed Gust Speed Precip Events Conditions
12:06 AM 60.8 °F 57.2 °F 88% 30.08 in 10.0 mi North 6.9 mph - N/A   Scattered Clouds
12:32 AM 60.8 °F 57.2 °F 88% 30.08 in 10.0 mi North 11.5 mph - N/A   Mostly Cloudy
12:56 AM 60.1 °F 57.9 °F 93% 30.09 in 10.0 mi North 10.4 mph - N/A   Mostly Cloudy
1:08 AM 60.8 °F 57.2 °F 88% 30.08 in 10.0 mi North 10.4 mph - N/A   Mostly Cloudy
1:38 AM 59.0 °F 57.2 °F 94% 30.09 in 10.0 mi North 11.5 mph - N/A   Overcast
1:56 AM 59.0 °F 57.0 °F 93% 30.09 in 10.0 mi North 12.7 mph - N/A   Overcast
2:56 AM 57.9 °F 55.9 °F 93% 30.08 in 10.0 mi North 12.7 mph - N/A   Overcast
3:53 AM 59.0 °F 55.4 °F 88% 30.11 in 10.0 mi NNE 8.1 mph - N/A   Overcast
3:56 AM 59.0 °F 55.9 °F 90% 30.11 in 10.0 mi North 9.2 mph - N/A   Overcast
4:56 AM 59.0 °F 57.0 °F 93% 30.09 in 10.0 mi NNE 10.4 mph - N/A   Overcast
5:56 AM 60.1 °F 57.9 °F 93% 30.11 in 10.0 mi NNE 6.9 mph - N/A   Overcast
6:56 AM 61.0 °F 59.0 °F 93% 30.13 in 10.0 mi North 10.4 mph - N/A   Overcast
7:56 AM 62.1 °F 59.0 °F 90% 30.14 in 10.0 mi NNE 9.2 mph - N/A   Overcast
8:56 AM 63.0 °F 60.1 °F 90% 30.16 in 10.0 mi NE 11.5 mph - N/A   Overcast
9:14 AM 62.6 °F 60.8 °F 94% 30.16 in 10.0 mi NNE 10.4 mph - N/A   Overcast
9:56 AM 64.0 °F 61.0 °F 90% 30.15 in 10.0 mi NE 10.4 mph 17.3 mph N/A   Overcast
10:56 AM 66.9 °F 62.1 °F 84% 30.14 in 10.0 mi NNE 12.7 mph 18.4 mph N/A   Overcast
11:56 AM 69.1 °F 62.1 °F 78% 30.12 in 10.0 mi NE 15.0 mph 20.7 mph N/A   Mostly Cloudy
12:35 PM 69.8 °F 64.4 °F 83% 30.11 in 8.0 mi NE 11.5 mph - 0.00 in Rain Light Rain
12:56 PM 69.1 °F 64.0 °F 84% 30.10 in 10.0 mi ENE 5.8 mph - 0.00 in   Overcast
1:56 PM 70.0 °F 64.0 °F 81% 30.06 in 10.0 mi NE 15.0 mph 20.7 mph N/A   Overcast
2:56 PM 70.0 °F 64.9 °F 84% 30.05 in 10.0 mi NE 8.1 mph 18.4 mph N/A   Overcast
4:39 PM 69.8 °F 66.2 °F 88% 30.04 in 10.0 mi NE 6.9 mph - N/A   Mostly Cloudy
4:56 PM 71.1 °F 66.0 °F 84% 30.04 in 10.0 mi NE 6.9 mph - N/A   Overcast
5:08 PM 69.8 °F 66.2 °F 88% 30.03 in 10.0 mi NNE 9.2 mph - N/A   Overcast
5:23 PM 71.6 °F 66.2 °F 83% 30.03 in 10.0 mi ENE 5.8 mph - N/A   Overcast
5:56 PM 69.1 °F 66.0 °F 90% 30.04 in 10.0 mi North 9.2 mph - N/A   Overcast
6:56 PM 66.9 °F 64.9 °F 93% 30.02 in 10.0 mi North 9.2 mph - N/A   Mostly Cloudy
7:56 PM 64.9 °F 63.0 °F 93% 30.03 in 10.0 mi North 10.4 mph 19.6 mph 0.00 in   Mostly Cloudy
8:03 PM 64.4 °F 62.6 °F 94% 30.04 in 10.0 mi NNW 11.5 mph - 0.01 in Rain Light Rain
8:12 PM 64.4 °F 62.6 °F 94% 30.04 in 9.0 mi North 10.4 mph - 0.01 in Rain Light Rain
10:27 PM 60.8 °F 60.8 °F 100% 30.06 in 10.0 mi NE 8.1 mph - 0.01 in Rain Light Rain
10:56 PM 63.0 °F 63.0 °F 100% 30.04 in 10.0 mi NE 10.4 mph - 0.01 in   Partly Cloudy
11:24 PM 64.4 °F 64.4 °F 100% 30.03 in 10.0 mi NE 8.1 mph - N/A   Partly Cloudy
11:49 PM 64.4 °F 64.4 °F 100% 30.04 in 10.0 mi NE 4.6 mph - N/A   Mostly Cloudy
11:56 PM 64.9 °F 64.0 °F 97% 30.04 in 10.0 mi North 8.1 mph - N/A   Mostly Cloudy